GW4343 Weather Reports


time (UTC)temp
C
wind
direction
speed
KPH
gust
KPH
rain 1hr
cm
rain 24hr
cm
rain mn
cm
humidity
%
barometer
mb
20260505060018 2 141 0.0 3.2 0.00 0.00 0.00 88 1013.7
20260505055504 2 142 0.0 3.2 0.00 0.00 0.00 88 1013.6
20260505055011 2 122 1.6 3.2 0.00 0.00 0.00 89 1013.6
20260505054523 2 266 1.6 3.2 0.00 0.00 0.00 89 1013.6
20260505054002 2 134 1.6 3.2 0.00 0.00 0.00 89 1013.3
20260505053513 2 141 1.6 3.2 0.00 0.00 0.00 89 1013.4
20260505053011 2 135 1.6 3.2 0.00 0.00 0.00 89 1013.6
20260505052505 2 132 3.2 3.2 0.00 0.00 0.00 89 1013.7
20260505052007 2 204 0.0 1.6 0.00 0.00 0.00 88 1013.6
20260505051509 2 204 0.0 0.0 0.00 0.00 0.00 87 1013.6
20260505051007 2 204 0.0 0.0 0.00 0.00 0.00 87 1013.5
20260505050503 2 204 0.0 0.0 0.00 0.00 0.00 87 1013.5
20260505041520 2 261 1.6 3.2 0.00 0.00 0.00 87 1013.8
20260505041004 2 241 0.0 1.6 0.00 0.00 0.00 88 1013.8
20260505040508 2 243 0.0 3.2 0.00 0.00 0.00 88 1013.9
20260505040016 2 253 0.0 3.2 0.00 0.00 0.00 88 1013.9
20260505035503 1 250 0.0 1.6 0.00 0.00 0.00 88 1013.9
20260505035011 1 251 1.6 1.6 0.00 0.00 0.00 88 1013.7
20260505034524 1 250 0.0 3.2 0.00 0.00 0.00 88 1013.7
20260505034007 1 252 0.0 3.2 0.00 0.00 0.00 88 1013.6
20260505033507 1 252 1.6 3.2 0.00 0.00 0.00 88 1013.7
20260505033014 1 251 0.0 1.6 0.00 0.00 0.00 88 1013.7
20260505032511 1 252 0.0 1.6 0.00 0.00 0.00 88 1013.6
20260505032008 1 250 0.0 0.0 0.00 0.00 0.00 88 1013.6
20260505031529 1 250 0.0 0.0 0.00 0.00 0.00 87 1013.6
20260505031007 1 250 0.0 0.0 0.00 0.00 0.00 86 1013.6
20260505030504 2 250 0.0 3.2 0.00 0.00 0.00 86 1013.3
20260505030041 2 250 0.0 3.2 0.00 0.00 0.00 85 1013.3
20260505025506 2 249 0.0 3.2 0.00 0.00 0.00 85 1013.3
20260505025004 2 227 0.0 0.0 0.00 0.00 0.00 84 1013.3
20260505024525 2 227 0.0 0.0 0.00 0.00 0.00 84 1013.1
20260505024003 2 227 0.0 0.0 0.00 0.00 0.00 84 1013.0
20260505023507 3 227 0.0 0.0 0.00 0.00 0.00 83 1013.0
20260505023025 3 227 0.0 0.0 0.00 0.00 0.00 83 1013.0
20260505022505 3 227 0.0 0.0 0.00 0.00 0.00 82 1012.8
20260505022010 3 205 0.0 0.0 0.00 0.00 0.00 82 1012.8
20260505021523 3 205 0.0 0.0 0.00 0.00 0.00 81 1012.7
20260505021010 3 205 0.0 0.0 0.00 0.00 0.00 81 1012.7
20260505020507 3 204 0.0 0.0 0.00 0.00 0.00 80 1012.7
20260505020018 4 310 0.0 0.0 0.00 0.00 0.00 80 1012.6
20260505015507 4 311 0.0 0.0 0.00 0.00 0.00 78 1012.5
20260505015008 5 311 0.0 0.0 0.00 0.00 0.00 77 1012.5
20260505014519 5 310 0.0 0.0 0.00 0.00 0.00 76 1012.5
20260505014008 5 310 0.0 0.0 0.00 0.00 0.00 74 1012.5
20260505013507 6 310 0.0 0.0 0.00 0.00 0.00 73 1012.5
20260505013025 6 310 0.0 3.2 0.00 0.00 0.00 71 1012.5
20260505012505 6 310 0.0 3.2 0.00 0.00 0.00 67 1012.5
20260505012007 7 340 0.0 3.2 0.00 0.00 0.00 65 1012.5
20260505011505 7 13 0.0 3.2 0.00 0.00 0.00 66 1012.7
20260505011003 7 37 1.6 3.2 0.00 0.00 0.00 66 1012.7
20260505010504 6 17 1.6 3.2 0.00 0.00 0.00 68 1012.7
20260505010005 6 24 3.2 3.2 0.00 0.00 0.00 69 1012.7
20260505005512 6 289 1.6 3.2 0.00 0.00 0.00 68 1012.9
20260505005004 6 281 1.6 3.2 0.00 0.00 0.00 69 1012.9
20260505004511 6 238 1.6 3.2 0.00 0.00 0.00 69 1012.9
20260505004004 6 276 0.0 1.6 0.00 0.00 0.00 69 1013.0
20260505003503 6 258 0.0 1.6 0.00 0.00 0.00 70 1013.2
20260505003003 6 258 0.0 1.6 0.00 0.00 0.00 70 1013.1
20260505002504 6 258 0.0 1.6 0.00 0.00 0.00 70 1013.2
20260505002004 6 20 0.0 4.8 0.00 0.00 0.00 70 1013.3
20260505001518 6 23 0.0 4.8 0.00 0.00 0.00 70 1013.3
20260505001006 6 23 0.0 4.8 0.00 0.00 0.00 72 1013.4
20260505000507 5 12 0.0 9.7 0.00 0.00 0.00 73 1013.4
20260505000019 5 27 3.2 9.7 0.00 0.00 0.00 73 1013.4
20260504235503 5 43 1.6 6.4 0.00 0.00 0.00 74 1013.4
20260504235009 5 33 0.0 8.0 0.00 0.00 0.00 76 1013.4
20260504234518 5 35 3.2 9.7 0.00 0.00 0.00 75 1013.5
20260504234007 5 14 4.8 9.7 0.00 0.00 0.00 76 1013.4
20260504233507 5 39 3.2 6.4 0.00 0.00 0.00 76 1013.6
20260504233008 5 13 3.2 8.0 0.00 0.00 0.00 76 1013.6
20260504232503 5 329 3.2 14.5 0.00 0.00 0.00 75 1014.2
20260504232003 5 307 4.8 19.3 0.00 0.00 0.00 74 1014.4
20260504231507 5 288 6.4 19.3 0.00 0.00 0.00 72 1014.3
20260504231010 5 233 8.0 19.3 0.00 0.00 0.00 71 1014.4
20260504230504 5 317 4.8 12.9 0.00 0.00 0.00 67 1014.2
20260504230006 5 307 8.0 11.3 0.00 0.00 0.00 67 1014.3
20260504225508 5 274 6.4 12.9 0.00 0.00 0.00 66 1014.2
20260504225004 5 305 1.6 14.5 0.00 0.00 0.00 69 1014.4
20260504224503 5 292 9.7 14.5 0.00 0.00 0.00 69 1014.5
20260504224004 5 287 3.2 9.7 0.00 0.00 0.00 72 1014.4
20260504223503 5 238 1.6 9.7 0.00 0.00 0.00 76 1014.3
20260504223021 5 260 4.8 9.7 0.00 0.00 0.00 75 1014.2
20260504222504 5 273 4.8 11.3 0.00 0.00 0.00 75 1014.0
20260504222007 5 283 4.8 11.3 0.00 0.00 0.00 73 1014.1
20260504221518 6 248 3.2 6.4 0.00 0.00 0.00 73 1014.3
20260504221006 6 273 1.6 8.0 0.00 0.00 0.00 73 1014.2
20260504220506 6 289 3.2 11.3 0.00 0.00 0.00 72 1014.1
20260504220016 6 289 6.4 11.3 0.00 0.00 0.00 70 1014.0
20260504215504 6 293 3.2 6.4 0.00 0.00 0.00 69 1014.0
20260504215013 6 289 3.2 12.9 0.00 0.00 0.00 69 1014.0
20260504214512 6 278 4.8 17.7 0.00 0.00 0.00 68 1014.0
20260504214006 6 261 8.0 25.7 0.00 0.00 0.00 66 1014.1
20260504213504 7 282 6.4 30.6 0.00 0.00 0.00 63 1013.9
20260504213019 7 300 11.3 30.6 0.00 0.00 0.00 60 1013.8
20260504212509 7 311 16.1 30.6 0.00 0.00 0.00 58 1013.6
20260504212008 8 291 16.1 29.0 0.00 0.00 0.00 56 1013.5
20260504211507 8 294 9.7 29.0 0.00 0.00 0.00 59 1013.3
20260504211006 8 285 9.7 22.5 0.00 0.00 0.00 58 1013.3
20260504210506 9 283 11.3 25.7 0.00 0.00 0.00 56 1013.2
20260504210025 10 251 11.3 25.7 0.00 0.00 0.00 54 1012.9
20260504205506 10 60 11.3 22.5 0.00 0.00 0.00 46 1012.9
20260504205002 11 271 11.3 30.6 0.00 0.00 0.00 42 1012.8
20260504204523 11 269 9.7 30.6 0.00 0.00 0.00 44 1012.8
20260504204006 11 236 9.7 20.9 0.00 0.00 0.00 44 1012.7
20260504203505 11 262 9.7 20.9 0.00 0.00 0.00 44 1012.9
20260504203022 11 323 9.7 20.9 0.00 0.00 0.00 46 1012.9
20260504202504 11 54 9.7 16.1 0.00 0.00 0.00 48 1013.0
20260504202007 11 342 8.0 19.3 0.00 0.00 0.00 49 1013.0
20260504201518 11 17 11.3 25.7 0.00 0.00 0.00 47 1013.2
20260504201006 11 20 8.0 25.7 0.00 0.00 0.00 47 1013.1
20260504200509 11 353 14.5 25.7 0.00 0.00 0.00 46 1013.2
20260504200014 11 345 11.3 24.1 0.00 0.00 0.00 44 1013.1
20260504195507 11 32 14.5 20.9 0.00 0.00 0.00 41 1013.1
20260504195004 13 15 16.1 20.9 0.00 0.00 0.00 40 1013.3
20260504194521 13 289 9.7 25.7 0.00 0.00 0.00 38 1013.2
20260504194007 13 267 12.9 25.7 0.00 0.00 0.00 38 1013.1
20260504193508 13 287 8.0 22.5 0.00 0.00 0.00 39 1013.3
20260504193011 13 231 6.4 22.5 0.00 0.00 0.00 39 1013.3
20260504192507 13 301 4.8 17.7 0.00 0.00 0.00 42 1013.3
20260504192004 13 236 4.8 20.9 0.00 0.00 0.00 40 1013.3
20260504191541 13 230 9.7 20.9 0.00 0.00 0.00 40 1013.4
20260504191009 14 297 8.0 24.1 0.00 0.00 0.00 38 1013.6
20260504190508 13 293 8.0 24.1 0.00 0.00 0.00 39 1013.6
20260504190025 13 281 9.7 22.5 0.00 0.00 0.00 39 1013.6
20260504185507 13 335 4.8 22.5 0.00 0.00 0.00 41 1013.9
20260504185007 13 188 8.0 19.3 0.00 0.00 0.00 41 1014.0
20260504184538 13 271 9.7 17.7 0.00 0.00 0.00 41 1014.0
20260504184010 12 183 9.7 20.9 0.00 0.00 0.00 42 1014.1
20260504183512 12 273 8.0 20.9 0.00 0.00 0.00 42 1014.2
20260504183020 11 269 9.7 19.3 0.00 0.00 0.00 45 1014.4
20260504182507 12 274 8.0 19.3 0.00 0.00 0.00 44 1014.4
20260504182011 11 300 6.4 14.5 0.00 0.00 0.00 46 1014.4
20260504181520 11 237 8.0 16.1 0.00 0.00 0.00 49 1014.5
20260504181008 11 273 6.4 19.3 0.00 0.00 0.00 48 1014.6
20260504180505 11 285 9.7 19.3 0.00 0.00 0.00 48 1014.8
20260504180016 11 274 6.4 20.9 0.00 0.00 0.00 50 1014.9
20260504175507 10 283 8.0 20.9 0.00 0.00 0.00 51 1014.9
20260504175010 11 272 6.4 17.7 0.00 0.00 0.00 50 1015.0
20260504174512 10 253 6.4 19.3 0.00 0.00 0.00 51 1015.1
20260504174011 10 281 11.3 19.3 0.00 0.00 0.00 50 1015.2
20260504173504 11 266 9.7 19.3 0.00 0.00 0.00 47 1015.3
20260504173025 10 34 3.2 25.7 0.00 0.00 0.00 50 1015.3
20260504172508 10 212 11.3 25.7 0.00 0.00 0.00 50 1015.4
20260504172004 10 231 8.0 16.1 0.00 0.00 0.00 49 1015.4
20260504171526 10 273 8.0 22.5 0.00 0.00 0.00 50 1015.5
20260504171011 10 234 9.7 24.1 0.00 0.00 0.00 49 1015.5
20260504170509 10 257 11.3 24.1 0.00 0.00 0.00 50 1015.5
20260504151007 10 249 12.9 30.6 0.00 0.00 0.00 52 1015.5
20260504150506 9 8 3.2 12.9 0.00 0.00 0.00 53 1015.7
20260504141008 3 269 1.6 4.8 0.00 0.00 0.00 66 1015.9
20260504140509 3 96 0.0 3.2 0.00 0.00 0.00 67 1015.9
20260504130504 0 131 0.0 3.2 0.00 0.00 0.00 74 1016.0
20260504110505 -3 253 1.6 4.8 0.00 0.00 0.00 84 1015.5
20260504100507 -3 255 0.0 1.6 0.00 0.00 0.00 82 1015.5
20260504081517 -2 195 0.0 0.0 0.00 0.00 0.00 79 1016.0
20260504081016 -2 195 0.0 0.0 0.00 0.00 0.00 77 1016.0
20260504080507 -2 194 0.0 0.0 0.00 0.00 0.00 76 1016.0